CW2640 Weather Reports


Display with metric or nautical units.
time (UTC)temp
F
wind
direction
speed
MPH
gust
MPH
rain 1hr
in
rain 24hr
in
rain mn
in
humidity
%
barometer
mb
20260502213759 67 116 0.0 0.0 0.00 0.00 0.00 40 1016.0
20260502210755 68 90 0.0 0.0 0.00 0.00 0.00 42 1016.1
20260502203755 70 115 0.0 0.0 0.00 0.00 0.00 40 1016.1
20260502200751 69 95 0.0 0.0 0.00 0.00 0.00 43 1016.4
20260502193748 70 106 0.0 0.0 0.00 0.00 0.00 42 1016.2
20260502190746 69 98 0.0 0.0 0.00 0.00 0.00 37 1016.4
20260502183742 69 96 0.0 0.0 0.00 0.00 0.00 38 1016.8
20260502180740 68 94 0.0 0.0 0.00 0.00 0.00 40 1016.9
20260502163731 67 91 0.0 0.0 0.00 0.00 0.00 45 1017.6
20260502160726 64 100 0.0 0.0 0.00 0.00 0.00 46 1017.6
20260502150721 59 116 0.0 0.0 0.00 0.00 0.00 61 1017.4
20260502130710 54 136 0.0 0.0 0.00 0.00 0.00 73 1016.5
20260502123705 53 140 0.0 0.0 0.00 0.00 0.00 79 1016.1
20260502120704 53 148 0.0 0.0 0.00 0.00 0.00 78 1016.0
20260502113703 53 170 0.0 0.0 0.00 0.00 0.00 74 1015.7
20260502110700 53 175 0.0 0.0 0.00 0.00 0.00 74 1015.1
20260502103655 53 175 0.0 0.0 0.00 0.00 0.00 76 1015.0
20260502100652 54 173 0.0 0.0 0.00 0.00 0.00 69 1015.0
20260502090650 55 165 0.0 0.0 0.00 0.00 0.00 71 1014.8
20260502070639 57 93 0.0 0.0 0.00 0.00 0.00 61 1014.9
20260502063637 57 81 0.0 0.0 0.00 0.00 0.00 65 1015.4
20260502060636 58 80 0.0 0.0 0.00 0.00 0.00 71 1015.2
20260502053633 58 80 0.0 0.0 0.00 0.00 0.00 78 1015.2
20260502050630 58 80 0.0 0.0 0.00 0.00 0.00 83 1014.9
20260502043630 58 80 0.0 0.0 0.00 0.00 0.00 88 1014.5
20260502040626 57 80 0.0 0.0 0.00 0.00 0.00 98 1014.4
20260502033621 57 80 0.0 0.0 0.00 0.00 0.00 99 1014.6
20260502030617 57 80 0.0 0.0 0.00 0.00 0.00 99 1015.0
20260502023614 57 82 0.0 0.0 0.00 0.00 0.00 99 1015.1
20260502020609 57 88 0.0 0.0 0.00 0.00 0.00 98 1015.3
20260502013607 57 88 0.0 0.0 0.00 0.00 0.00 96 1014.8
20260502010606 57 91 0.0 0.0 0.00 0.00 0.00 96 1014.7
20260502003606 58 100 0.0 0.0 0.00 0.00 0.00 96 1014.6
20260502000606 59 111 0.0 0.0 0.00 0.00 0.00 90 1014.2
20260501233604 60 114 0.0 0.0 0.00 0.00 0.00 87 1014.1
20260501230600 60 115 0.0 0.0 0.00 0.00 0.00 86 1014.2
20260501223600 61 114 0.0 0.0 0.00 0.00 0.00 83 1013.9
20260501220558 63 113 0.0 0.0 0.00 0.00 0.00 79 1014.2